[[{"header":{"parameterUnit":"m.s-1","parameterCategory":1,"la1":30.2991,"la2":30.254,"lo1":-89.0895,"lo2":-89.0444,"dy":0.0017,"dx":0.0017,"nx":28,"ny":28,"refTime":"2024-07-19T09:00:00:Z","depth":0,"parameterNumber":2,"parameterNumberName":"U-component_of_WINDS"},"data":[0,0,0,0,0,0,0,0,0,0,0,0,0,0,0,0,0,0,0,0,0,0,0,0,0,0,0,0,0,0,0,0,0,0,0,0,0,0,0,0,0,0,0,0,0,0,0,0,0,0,0,0,0,0,0,0,0,0,-1.2238,-1.2239,0,-1.2373,-1.2374,-1.2376,-1.2436,-1.2436,-1.2435,-1.2435,-1.257,-1.2574,-1.2577,0,0,0,0,0,0,0,0,0,0,0,0,0,-1.2028,-1.2031,-1.2238,-1.2239,-1.2241,-1.2373,-1.2374,-1.2376,-1.2436,-1.2436,-1.2435,-1.2435,-1.2569,-1.2573,-1.2578,0,0,0,0,0,0,0,0,0,0,0,0,0,-1.2136,-1.2032,-1.2237,-1.2287,-1.2292,-1.2372,-1.2374,-1.2377,-1.2436,-1.2436,-1.2435,-1.2435,-1.2567,-1.2573,-1.2578,-1.2618,0,0,-1.2595,-1.2598,0,0,0,0,0,0,0,0,-1.213,-1.2144,-1.2278,-1.2283,-1.229,-1.2387,-1.235,-1.2457,-1.2436,-1.2381,-1.2435,-1.2435,-1.2509,-1.252,-1.2545,-1.2624,-1.263,-1.2596,-1.2599,-1.2602,-1.2603,0,0,0,0,0,0,0,-1.2122,-1.2138,-1.2291,-1.228,-1.2287,-1.2301,-1.2316,-1.2371,-1.2445,-1.2386,-1.2391,-1.2406,-1.2512,-1.254,-1.2549,-1.2632,-1.2596,-1.2601,-1.2604,-1.2606,-1.275,-1.275,0,0,0,0,0,0,-1.2107,-1.2132,-1.2287,-1.2295,-1.2208,-1.2305,-1.2322,-1.2356,-1.2444,-1.2458,-1.2406,-1.2408,-1.253,-1.2542,-1.2554,-1.2606,-1.2602,-1.2607,-1.261,-1.2749,-1.275,-1.275,0,0,0,0,0,0,-1.2103,-1.2121,-1.2281,-1.2215,-1.2236,-1.2309,-1.2347,-1.2359,-1.2387,-1.246,-1.2473,-1.2421,-1.2531,-1.2546,-1.2602,-1.2612,-1.261,-1.2615,-1.2749,-1.275,-1.275,-1.2711,0,0,0,0,0,0,-1.2096,-1.2119,-1.2135,-1.2215,-1.224,-1.2328,-1.2348,-1.2362,-1.2396,-1.2401,-1.2477,-1.2489,-1.2532,-1.2593,-1.2607,-1.2619,-1.2619,-1.2748,-1.2749,-1.275,-1.2712,-1.271,-1.2709,0,0,0,0,0,-1.2089,-1.2118,-1.2136,-1.2154,-1.2262,-1.2328,-1.2343,-1.2392,-1.2397,-1.2414,-1.2461,-1.2487,-1.2608,-1.2598,-1.2615,-1.2629,-1.2748,-1.2749,-1.275,-1.2712,-1.2711,-1.2709,0,0,0,0,0,0,-1.2037,-1.2129,-1.215,-1.2206,-1.2259,-1.2338,-1.2361,-1.2388,-1.244,-1.2441,-1.2499,-1.2516,-1.2566,-1.2603,-1.259,-1.2672,-1.268,-1.2685,-1.2646,-1.2645,-1.2644,-1.2634,-1.2624,0,0,0,0,0,-1.2032,-1.2079,-1.2157,-1.2199,-1.2225,-1.2288,-1.2319,-1.2352,-1.2409,-1.2431,-1.2482,-1.2535,-1.2585,-1.2617,-1.2667,-1.2717,-1.2734,-1.2735,-1.2733,-1.2732,-1.2735,-1.2764,-1.2765,-1.2754,-1.2754,-1.2754,0,0,-1.2022,-1.2079,-1.2105,-1.219,-1.2235,-1.2282,-1.2307,-1.2355,-1.239,-1.2438,-1.2495,-1.2533,-1.2596,-1.2649,-1.2675,-1.2681,-1.2742,-1.2733,-1.2731,-1.2736,-1.2765,-1.2766,-1.2767,-1.2754,-1.2754,-1.2754,0,0,-1.2029,-1.2077,-1.2117,-1.2162,-1.223,-1.2272,-1.2281,-1.2356,-1.2385,-1.2442,-1.248,-1.2521,-1.2606,-1.2649,-1.2682,-1.2705,-1.273,-1.2719,-1.2712,-1.274,-1.274,-1.2742,-1.275,-1.2752,-1.2722,-1.2722,-1.2722,0,-1.2008,-1.2081,-1.2134,-1.2181,-1.2217,-1.2264,-1.2304,-1.2345,-1.2425,-1.2448,-1.2454,-1.2562,-1.2608,-1.2671,-1.2677,-1.2702,-1.2714,-1.2711,-1.2736,-1.2738,-1.274,-1.2748,-1.2751,-1.272,-1.272,-1.272,-1.2721,0,-1.2053,-1.2102,-1.2126,-1.2204,-1.2243,-1.2286,-1.2344,-1.2377,-1.2406,-1.2447,-1.2505,-1.2561,-1.2623,-1.2641,-1.267,-1.2708,-1.271,-1.2725,-1.2735,-1.2738,-1.2747,-1.275,-1.2718,-1.2718,-1.2719,-1.2719,0,0,-1.2031,-1.2137,-1.2145,-1.2181,-1.2259,-1.2298,-1.2343,-1.2405,-1.2432,-1.2485,-1.2524,-1.2594,-1.2609,-1.2646,-1.268,-1.2704,-1.2718,-1.2717,-1.2719,-1.2715,-1.2764,-1.2753,-1.2756,-1.2736,-1.2736,-1.2737,-1.2759,0,-1.2048,-1.2133,-1.2181,-1.2244,-1.2291,-1.2336,-1.2375,-1.2426,-1.2465,-1.2509,-1.2552,-1.2601,-1.2617,-1.264,-1.2665,-1.2711,-1.2729,-1.271,-1.2771,-1.2773,-1.2755,-1.276,-1.2748,-1.2767,-1.2763,-1.2763,-1.2764,0,-1.208,-1.2134,-1.2202,-1.2275,-1.2297,-1.2331,-1.2392,-1.2434,-1.2492,-1.2519,-1.256,-1.2595,-1.2642,-1.2648,-1.2714,-1.27,-1.2728,-1.2754,-1.2756,-1.2764,-1.2769,-1.2768,-1.2774,-1.2776,-1.277,-1.2769,-1.2769,0,-1.2058,-1.2147,-1.22,-1.2229,-1.2315,-1.2338,-1.2375,-1.2434,-1.2468,-1.252,-1.2543,-1.2599,-1.263,-1.2673,-1.2721,-1.272,-1.2782,-1.2792,-1.2805,-1.2804,-1.2816,-1.2815,-1.2826,-1.2833,-1.2833,-1.2833,-1.2833,0,-1.2073,-1.2113,-1.2191,-1.2223,-1.2269,-1.2324,-1.2367,-1.2407,-1.2459,-1.2499,-1.2541,-1.2577,-1.2638,-1.2682,-1.2719,-1.2768,-1.2782,-1.2804,-1.2814,-1.2801,-1.2798,-1.282,-1.282,-1.2834,-1.2834,-1.2834,-1.2833,0,-1.2056,-1.211,-1.217,-1.2247,-1.2267,-1.2298,-1.2363,-1.2395,-1.2436,-1.2486,-1.2501,-1.2565,-1.2619,-1.2671,-1.2742,-1.2767,-1.2816,-1.2828,-1.2797,-1.2802,-1.2812,-1.2811,-1.2839,-1.2845,-1.2847,-1.2847,-1.2847,0,-1.2062,-1.2094,-1.2175,-1.2205,-1.2241,-1.229,-1.2325,-1.2379,-1.2414,-1.2483,-1.2507,-1.2564,-1.2612,-1.2695,-1.2747,-1.2802,-1.2816,-1.2822,-1.2825,-1.2811,-1.2817,-1.2814,-1.2818,-1.2821,-1.282,-1.282,-1.282,0,-1.2067,-1.2093,-1.2143,-1.2202,-1.2243,-1.2292,-1.2342,-1.2364,-1.2428,-1.2465,-1.2521,-1.2558,-1.2632,-1.2687,-1.2748,-1.2784,-1.2812,-1.2819,-1.2825,-1.2812,-1.2792,-1.2803,-1.2793,-1.2818,-1.2818,-1.2818,-1.2818,-1.2818,-1.2063,-1.2093,-1.2155,-1.2209,-1.2253,-1.2299,-1.2333,-1.2379,-1.2427,-1.2491,-1.252,-1.2576,-1.2633,-1.2718,-1.2754,-1.2798,-1.2805,-1.2813,-1.2816,-1.2817,-1.2814,-1.2785,-1.2809,-1.2809,-1.2809,-1.2809,-1.2809,0,-1.2071,-1.2112,-1.2162,-1.2231,-1.2273,-1.2297,-1.2354,-1.2387,-1.2437,-1.2488,-1.2535,-1.2599,-1.2653,-1.2709,-1.2766,-1.279,-1.2804,-1.2803,-1.2802,-1.281,-1.2805,-1.2794,-1.2791,-1.2791,-1.2791,-1.2791,-1.2791,-1.2791,-1.208,-1.2133,-1.2165,-1.224,-1.2281,-1.2337,-1.2368,-1.241,-1.2451,-1.2521,-1.2567,-1.2603,-1.2657,-1.2718,-1.2768,-1.2783,-1.2802,-1.2797,-1.2815,-1.2809,-1.281,-1.2812,-1.2802,-1.28,-1.28,-1.2817,-1.2818,-1.2818]},{"header":{"parameterUnit":"m.s-1","parameterCategory":1,"la1":30.2991,"la2":30.254,"lo1":-89.0895,"lo2":-89.0444,"dy":0.0017,"dx":0.0017,"nx":28,"ny":28,"refTime":"2024-07-19T09:00:00:Z","depth":0,"parameterNumber":3,"parameterNumberName":"V-component_of_WINDS"},"data":[0,0,0,0,0,0,0,0,0,0,0,0,0,0,0,0,0,0,0,0,0,0,0,0,0,0,0,0,0,0,0,0,0,0,0,0,0,0,0,0,0,0,0,0,0,0,0,0,0,0,0,0,0,0,0,0,0,0,4.7222,4.7223,0,4.7331,4.7332,4.7333,4.7391,4.7391,4.7391,4.7391,4.7496,4.7498,4.7501,0,0,0,0,0,0,0,0,0,0,0,0,0,4.7058,4.7061,4.7222,4.7224,4.7225,4.7331,4.7332,4.7334,4.7391,4.7391,4.7391,4.7391,4.7495,4.7498,4.7501,0,0,0,0,0,0,0,0,0,0,0,0,0,4.7144,4.7062,4.7222,4.7266,4.7271,4.733,4.7332,4.7334,4.7391,4.7391,4.7391,4.7391,4.7494,4.7498,4.7502,4.7523,0,0,4.7514,4.7516,0,0,0,0,0,0,0,0,4.7139,4.715,4.7258,4.7263,4.7269,4.7348,4.7313,4.7397,4.739,4.7345,4.7391,4.7391,4.7446,4.7454,4.7474,4.7528,4.7533,4.7515,4.7517,4.7519,4.752,0,0,0,0,0,0,0,4.7133,4.7146,4.7265,4.726,4.7266,4.7279,4.7291,4.7329,4.7393,4.7349,4.7353,4.7366,4.7449,4.747,4.7477,4.7534,4.7514,4.7518,4.752,4.7522,4.7613,4.7613,0,0,0,0,0,0,4.7121,4.7141,4.7262,4.7268,4.7204,4.7282,4.7296,4.7322,4.7393,4.7404,4.7366,4.7368,4.7463,4.7472,4.748,4.7511,4.7519,4.7522,4.7525,4.7613,4.7613,4.7613,0,0,0,0,0,0,4.7117,4.7131,4.7257,4.7206,4.7223,4.7284,4.7314,4.7324,4.7345,4.7405,4.7416,4.7376,4.7463,4.7475,4.7513,4.7516,4.7524,4.7528,4.7613,4.7613,4.7613,4.7572,0,0,0,0,0,0,4.7112,4.713,4.714,4.7206,4.7225,4.7289,4.7314,4.7326,4.7353,4.7357,4.7418,4.7428,4.7464,4.7507,4.7517,4.7521,4.7531,4.7613,4.7613,4.7613,4.7573,4.7571,4.7568,0,0,0,0,0,4.7106,4.7122,4.714,4.7154,4.7239,4.7289,4.73,4.7344,4.7353,4.7362,4.7401,4.7426,4.7514,4.751,4.7522,4.7528,4.7613,4.7613,4.7613,4.7574,4.7571,4.7568,0,0,0,0,0,0,4.7053,4.7132,4.7152,4.719,4.7233,4.7299,4.7313,4.7338,4.7378,4.738,4.743,4.7443,4.7477,4.7506,4.7501,4.7553,4.7566,4.7568,4.7532,4.753,4.7527,4.7519,4.7534,0,0,0,0,0,4.7046,4.7081,4.7148,4.7175,4.7196,4.725,4.7273,4.7304,4.7349,4.7366,4.7408,4.7449,4.7487,4.751,4.7547,4.7578,4.7592,4.7588,4.7585,4.7583,4.7584,4.7603,4.7602,4.7613,4.7613,4.7613,0,0,4.703,4.7078,4.7097,4.7165,4.7202,4.7236,4.7265,4.73,4.7325,4.7371,4.7411,4.7442,4.7492,4.7527,4.7544,4.7552,4.7584,4.7583,4.758,4.7583,4.7603,4.7602,4.7601,4.7613,4.7613,4.7613,0,0,4.7021,4.7061,4.7089,4.7125,4.7181,4.7218,4.7224,4.7287,4.731,4.7351,4.7387,4.7417,4.7479,4.7514,4.7539,4.7544,4.7568,4.7554,4.7541,4.7559,4.7558,4.7558,4.756,4.756,4.7556,4.7555,4.7555,0,4.6995,4.705,4.7099,4.7133,4.7161,4.7207,4.7234,4.7266,4.733,4.7348,4.7357,4.7438,4.7474,4.7518,4.752,4.7539,4.7547,4.7548,4.7555,4.7555,4.7555,4.7557,4.7558,4.7554,4.7554,4.7554,4.7554,0,4.7015,4.7053,4.7068,4.7132,4.7162,4.7192,4.7244,4.7268,4.7296,4.7331,4.7372,4.7417,4.7465,4.7478,4.7504,4.7526,4.7529,4.7545,4.7559,4.7551,4.7554,4.7556,4.7551,4.7551,4.7552,4.7552,0,0,4.6974,4.7066,4.707,4.71,4.7166,4.7195,4.7227,4.7276,4.7296,4.7339,4.7367,4.7419,4.7436,4.7464,4.7495,4.7511,4.7512,4.7525,4.7527,4.7522,4.754,4.7527,4.7527,4.7529,4.7529,4.753,4.7536,0,4.6974,4.7036,4.7081,4.7125,4.716,4.7204,4.7232,4.7274,4.7308,4.7342,4.7378,4.7416,4.7434,4.7452,4.747,4.7508,4.7517,4.7508,4.7554,4.7555,4.7541,4.7529,4.7516,4.7519,4.7537,4.7537,4.7538,0,4.6982,4.7026,4.7074,4.7138,4.7154,4.7178,4.7228,4.7259,4.7308,4.7332,4.7365,4.7397,4.7431,4.7443,4.7491,4.7484,4.7506,4.7528,4.7529,4.7535,4.7546,4.7535,4.7521,4.7522,4.754,4.754,4.754,0,4.6948,4.7019,4.7057,4.7081,4.7155,4.7172,4.7203,4.7252,4.7279,4.7322,4.734,4.7384,4.7409,4.7442,4.7485,4.7489,4.7529,4.7543,4.7549,4.7548,4.7555,4.7554,4.7545,4.7568,4.7568,4.7568,4.7568,0,4.6943,4.6971,4.7043,4.7066,4.7099,4.7149,4.7179,4.7214,4.7258,4.7288,4.7328,4.7355,4.741,4.7443,4.7477,4.7512,4.7522,4.7542,4.755,4.7538,4.7536,4.7553,4.7554,4.7568,4.7568,4.7568,4.7568,0,4.691,4.6959,4.7004,4.7072,4.7089,4.711,4.7167,4.7191,4.7228,4.7265,4.7277,4.7334,4.7375,4.7422,4.7478,4.7501,4.7534,4.7546,4.7518,4.7523,4.7526,4.7525,4.7527,4.753,4.7551,4.7551,4.7551,0,4.6903,4.6926,4.6997,4.7021,4.7052,4.709,4.7119,4.7169,4.7197,4.7255,4.7272,4.7317,4.7356,4.742,4.7466,4.7509,4.7523,4.7521,4.753,4.7517,4.7523,4.7522,4.7524,4.7518,4.7518,4.7517,4.7517,0,4.6887,4.6911,4.6951,4.7001,4.7035,4.7075,4.7117,4.7134,4.7193,4.7222,4.7267,4.7297,4.7356,4.74,4.745,4.7481,4.7508,4.7514,4.7518,4.7506,4.7489,4.7498,4.7511,4.7514,4.7514,4.7514,4.7514,4.7514,4.6867,4.689,4.6944,4.6988,4.7025,4.7064,4.7091,4.7132,4.717,4.7224,4.7251,4.7295,4.7344,4.7414,4.7444,4.7478,4.7487,4.7492,4.7493,4.7494,4.7491,4.7483,4.7487,4.7488,4.7488,4.7488,4.7488,0,4.6853,4.689,4.693,4.699,4.7024,4.705,4.7098,4.7125,4.7164,4.7208,4.7246,4.7297,4.7341,4.7391,4.7437,4.7455,4.7469,4.7466,4.7465,4.7472,4.748,4.7473,4.7454,4.7454,4.7454,4.7454,4.7454,4.7454,4.685,4.689,4.692,4.6979,4.7016,4.7061,4.7087,4.7122,4.7158,4.7214,4.7252,4.7285,4.7331,4.7382,4.7423,4.7436,4.7451,4.7444,4.7461,4.7468,4.7471,4.7474,4.7467,4.7447,4.7447,4.745,4.745,4.745]}]]